Tracking 31027 objects as of 19-Jul-2025
HD Live streaming from Space Station
objects crossing your sky now

STARLINK-31164

Track STARLINK-31164 now!
10-day predictions
STARLINK-31164 is classified as:


NORAD ID: 58733
Int'l Code: 2024-005F
Perigee: 565.4 km
Apogee: 567.0 km
Inclination: 43.0 °
Period: 95.8 minutes
Semi major axis: 6937 km
RCS: Unknown
Launch date: January 7, 2024
Source: United States (US)
Launch site: AIR FORCE EASTERN TEST RANGE (AFETR)
Your satellite tracking list
HAWK-4A
Track 1 satellite(s)




NASA's NSSDC Master Catalog

Two Line Element Set (TLE):
1 58733U 24005F   25199.00282349  .00000148  00000-0  26027-4 0  9995
2 58733  43.0031  57.2718 0001165 260.2302  99.8409 15.02536953 85109
Source of the keplerian elements: AFSPC